Regional Weather Roundup
Issued by NWS Mt. Holly, NJ

Home | Current Version | Previous Version | Text Only | Print | Product List | Glossary On
Versions: 1 2 3 4 5 6 7 8 9 10 11 12 13 14 15 16 17 18 19 20 21 22 23 24 25 26 27 28 29 30 31 32 33 34 35 36 37 38 39 40 41 42 43 44 45 46 47 48 49 50
000
ASUS41 KPHI 282210
RWRPHI

REGIONAL WEATHER ROUNDUP
NATIONAL WEATHER SERVICE MOUNT HOLLY NJ
600 PM EDT MON JUL 28 2014

NOTE:  "FAIR" INDICATES FEW OR NO CLOUDS BELOW 12,000 FEET WITH NO
SIGNIFICANT WEATHER AND/OR OBSTRUCTIONS TO VISIBILITY.

 * = STATION DOES NOT REPORT PRECIPITATION (E.G. RAIN, SNOW, ETC.)
        OR FOG.

NJZ015>026-282300-
SOUTHERN NEW JERSEY

CITY           SKY/WX    TMP DP  RH WIND       PRES   REMARKS
POMONA         MOSUNNY   83  58  42 W14G26    29.63R
RIO GRANDE*    CLOUDY    81  61  50 W12G17    29.67R
MILLVILLE      MOSUNNY   83  59  44 W16       29.65R
WRIGHTSTOWN    PTSUNNY   80  59  49 W13       29.59R
MOUNT HOLLY    MOSUNNY   80  58  46 SW12G20   29.62R
TRENTON        MOSUNNY   81  58  45 MISG      29.59S

$$
NJZ001>014-282300-
NORTHERN NEW JERSEY

CITY           SKY/WX    TMP DP  RH WIND       PRES   REMARKS
SUSSEX         PTSUNNY   73  63  70 VRB3      29.59R
ANDOVER*         N/A     67  62  84 CALM      29.62R
MORRISTOWN     MOSUNNY   81  59  47 W17G26    29.56S
NEWARK         PTSUNNY   83  58  42 W20G35    29.55R
TETERBORO      SUNNY     84  58  40 W16G26    29.54R
CALDWELL       SUNNY     81  57  43 W10G23    29.56R
SOMERVILLE     MOSUNNY   80  58  46 SW8G17    29.56R
ALLAIRE*       PTSUNNY   79  59  50 W13       29.59S
TOMS RIVER*    CLOUDY    81  61  50 W10       29.61R

$$
PAZ043-044-047-054-055-060>062-066>071-282300-
EASTERN PENNSYLVANIA

CITY           SKY/WX    TMP DP  RH WIND       PRES   REMARKS
PHILADELPHIA   MOSUNNY   82  58  43 W18G26    29.63R
NORTH PHILA    MOSUNNY   81  56  42 W14G28    29.62S
BLUE BELL      MOSUNNY   81  59  47 W14G21    29.62R
DOYLESTOWN     MOSUNNY   79  58  48 W9G21     29.61R
QUAKERTOWN*    MOSUNNY   77  59  53 W9G18     29.64R
POTTSTOWN      MOSUNNY   78  58  49 SW13G21   29.64R
LANCASTER      CLOUDY    75  59  57 NW10      29.66R
COATESVILLE    MOSUNNY   77  59  53 W13G24    29.67R
READING        CLOUDY    68  61  78 NW14      29.67R
ALLENTOWN      CLOUDY    68  61  78 W7        29.64R
MOUNT POCONO   PTSUNNY   63  59  87 W12G21    29.65S
HAZLETON       CLOUDY    64  63  94 W7        29.72R
WILKES BARRE   CLOUDY    68  61  78 W10       29.66R

$$
DEZALL-MDZ008-012-015-019-020-282300-
DELAWARE AND EASTERN MARYLAND

CITY           SKY/WX    TMP DP  RH WIND       PRES   REMARKS
WILMINGTON     MOSUNNY   81  59  47 W23G29    29.65R
DOVER          MOSUNNY   81  60  48 W16G24    29.65R
GEORGETOWN     MOSUNNY   83  58  42 W8        29.68R
EASTON         MOSUNNY   82  59  44 NW13G18   29.72R
PATUXENT       PTSUNNY   83  55  38 W17G23    29.69R
OCEAN CITY     PTSUNNY   83  61  47 W12       29.68R
WALLOPS ISLAND PTSUNNY   84  62  47 NW8       29.70R
CAMBRIDGE      MOSUNNY   82  55  39 W9        29.69R

$$
PAZ001-021-NYZ056-072-MDZ011-DCZ001-282300-
OTHER NEARBY LOCATIONS

CITY           SKY/WX    TMP DP  RH WIND       PRES   REMARKS
HARRISBURG     CLOUDY    75  59  57 N24G33    29.67R
STATE COLLEGE  LGT RAIN  64  59  82 N9        29.76R
WILLIAMSPORT   CLOUDY    71  58  63 NW10      29.69R
BINGHAMTON     LGT RAIN  60  58  92 NW10      29.68R
NEW YORK CITY  MOSUNNY   80  58  46 W9G18     29.58R
BALTIMORE      PTSUNNY   82  57  42 W18G29    29.68R
WASHINGTON DC  PTSUNNY   83  55  38 W22G28    29.71R

$$


USA.gov is the U.S. government's official web portal to all federal, state and local government web resources and services.